Simultaneous Nadir Overpasses (SNOs) Predictions

Prediction of SNOs between NOAA-20 and NOAA-19 Satellite Orbit:

Table of predicted SNOs for the next 14.0 days since TLE Epoch: 4/23/2022
Index Date (NOAA-20) Time (NOAA-20) Lat,Lon (NOAA-20) SZA (NOAA-20 ) Date (NOAA-19) Time (NOAA-19) Lat,Lon (NOAA-19) SZA (NOAA-19 ) Distance(km) Time Diff (sec)
1 04/23/2022 06:16:20 77.09, 65.37 65.33 04/23/2022 06:15:55 77.11, 65.42 65.35 2.13 25
2 04/23/2022 07:07:04 -77.09,-127.29 114.70 04/23/2022 07:07:01 -77.09,-127.44 114.68 3.78 3
3 04/23/2022 07:57:50 77.10, 39.98 65.31 04/23/2022 07:57:55 77.11, 39.92 65.32 1.96 5
4 04/23/2022 08:48:35 -77.13,-152.86 114.66 04/23/2022 08:49:00 -77.13,-152.75 114.68 2.72 25
5 04/23/2022 09:39:21 77.14, 14.41 65.34 04/23/2022 09:39:55 77.11, 14.42 65.30 3.80 34
6 04/23/2022 10:30:05 -77.14,-178.25 114.68 04/23/2022 10:31:00 -77.13,-178.25 114.71 0.63 55
7 04/23/2022 11:20:51 77.15, -10.98 65.32 04/23/2022 11:21:54 77.15, -10.88 65.30 2.47 63
8 04/23/2022 12:11:45 -77.56, 154.47 114.15 04/23/2022 12:12:50 -77.53, 158.22 114.50 89.87 65



Historial Predications of SNOs between NOAA-20 and NOAA-19
